Location: Delettes
(50.6178°N, 2.2123°E)
Time: 15:20:01
(UTC+00:00)

STARLINK-56 - Pass Details

Date: 27 February 2020
Orbit: 529 x 530 km, 53.0° (Epoch: 28 March)

Event Time Altitude Azimuth Distance (km) Brightness Sun altitude
Rises 19:39:50 0° 284° (WNW) 2,670 8.7 -21.5°
Reaches altitude 10° 19:42:04 10° 287° (WNW) 1,779 7.4 -21.9°
Maximum altitude 19:46:05 69° 11° (N) 571 3.6 -22.5°
Enters shadow 19:46:06 69° 12° (NNE) 571 3.6 -22.5°
